sat.trackr.live / text

‹ back to catalog

STARLINK-5815

NORAD 55789 · 2023-028BA

PAYLOAD ACTIVE UNKNOWN

§ Identity

Operator
Country
US
Launch date
2023-03-03
Launch site
AFWTR
Launch vehicle
Mass (kg)
RCS (m²)

Purposes: comms

External: N2YO · Heavens-Above · Gunter

§ Orbital elements

Epoch: 2026-05-25T00:55:13.173024Z

Period
96.11 min
Inclination
69.9999°
Eccentricity
0.0002600
Mean motion
14.98341573 rev/d
Perigee alt
570.2 km
Apogee alt
573.8 km
Semi-major
6,950.2 km
B*
-1.6104e-5
RAAN
11.9076°
Arg perigee
271.3374°
Mean anomaly
88.7487°
Rev number
17,846

§ Raw data

STARLINK-58151 55789U 23028BA  26145.03834691 -.00000285  00000+0 -16104-4 0  99932 55789  69.9999  11.9076 0002600 271.3374  88.7487 14.98341573178469

JSON: /api/v1/satellites/55789 · /tle

For live sub-satellite position, see the globe view (requires WebGL).

§ Visibility from observer

Set your observer location to see the next 7 days of passes ≥ 10°. The values pass through the URL so the page stays shareable.

No JS? Fill the form by hand. The geolocation button needs JavaScript.